Radiation Dose at Monitoring Post of Fukushima Daini Nuclear Power Station
Date,Time,MP-1(microSv/h),MP-2(microSv/h),MP-3(microSv/h),MP-4(microSv/h),MP-5(microSv/h),MP-6(microSv/h),MP-7(microSv/h),Wind Direction,Wind Velocity(m/s),Rain
2016/01/19,00:00,0.448,0.262,0.470,0.425,0.412,0.213,0.184,north,5.7,No
2016/01/19,00:10,0.450,0.263,0.470,0.427,0.413,0.213,0.183,north,4.4,No
2016/01/19,00:20,0.449,0.263,0.470,0.427,0.412,0.213,0.184,north,5.4,No
2016/01/19,00:30,0.447,0.263,0.469,0.427,0.412,0.213,0.184,north,4.9,No
2016/01/19,00:40,0.447,0.264,0.472,0.427,0.412,0.213,0.184,north,4.4,No
2016/01/19,00:50,0.450,0.263,0.469,0.429,0.414,0.212,0.184,north,6.3,No
2016/01/19,01:00,0.446,0.263,0.470,0.427,0.412,0.213,0.185,north,6.4,No
2016/01/19,01:10,0.449,0.262,0.470,0.427,0.413,0.214,0.185,north,6.0,No
2016/01/19,01:20,0.449,0.262,0.470,0.429,0.412,0.214,0.185,north,6.1,No
2016/01/19,01:30,0.447,0.263,0.469,0.428,0.413,0.214,0.185,north,5.4,No
2016/01/19,01:40,0.448,0.263,0.470,0.428,0.411,0.213,0.185,north,4.4,No
2016/01/19,01:50,0.446,0.263,0.471,0.427,0.412,0.213,0.184,north-northeast,4.8,No
2016/01/19,02:00,0.448,0.263,0.470,0.428,0.415,0.215,0.184,north,4.3,No
2016/01/19,02:10,0.448,0.262,0.471,0.426,0.414,0.214,0.185,north-northeast,2.0,No
2016/01/19,02:20,0.447,0.264,0.471,0.427,0.411,0.213,0.186,east-northeast,2.3,No
2016/01/19,02:30,0.448,0.263,0.474,0.428,0.411,0.213,0.185,northeast,5.3,No
2016/01/19,02:40,0.449,0.263,0.469,0.427,0.414,0.213,0.185,northeast,4.9,No
2016/01/19,02:50,0.448,0.264,0.470,0.428,0.413,0.213,0.184,north-northeast,3.5,No
2016/01/19,03:00,0.448,0.263,0.471,0.427,0.412,0.215,0.184,north,2.1,No
2016/01/19,03:10,0.449,0.263,0.472,0.429,0.412,0.214,0.184,north,2.4,No
2016/01/19,03:20,0.448,0.264,0.470,0.429,0.414,0.214,0.185,north-northeast,2.1,No
2016/01/19,03:30,0.450,0.264,0.469,0.427,0.412,0.213,0.185,north,2.5,No
2016/01/19,03:40,0.449,0.263,0.472,0.428,0.413,0.215,0.185,north-northeast,2.2,No
2016/01/19,03:50,0.450,0.263,0.472,0.428,0.413,0.214,0.185,north-northwest,3.1,No
2016/01/19,04:00,0.449,0.263,0.469,0.428,0.413,0.215,0.184,north-northwest,6.6,No
2016/01/19,04:10,0.448,0.263,0.469,0.428,0.415,0.213,0.185,north-northwest,6.1,No
2016/01/19,04:20,0.449,0.263,0.472,0.428,0.413,0.215,0.185,north-northwest,8.8,No
2016/01/19,04:30,0.448,0.263,0.473,0.429,0.412,0.214,0.185,northwest,8.8,No
2016/01/19,04:40,0.451,0.263,0.470,0.429,0.414,0.215,0.184,northwest,7.0,No
2016/01/19,04:50,0.451,0.264,0.472,0.428,0.413,0.214,0.185,north-northwest,6.7,No
2016/01/19,05:00,0.449,0.263,0.470,0.428,0.413,0.214,0.185,north-northwest,10.0,No
2016/01/19,05:10,0.449,0.264,0.471,0.429,0.414,0.214,0.185,north-northwest,12.5,No
2016/01/19,05:20,0.450,0.264,0.472,0.428,0.413,0.215,0.185,northwest,12.9,No
2016/01/19,05:30,0.453,0.263,0.473,0.428,0.414,0.215,0.185,northwest,9.8,No
2016/01/19,05:40,0.450,0.263,0.473,0.427,0.410,0.214,0.186,northwest,10.3,No
2016/01/19,05:50,0.451,0.264,0.470,0.429,0.416,0.215,0.184,northwest,12.8,No
2016/01/19,06:00,0.451,0.264,0.472,0.429,0.414,0.214,0.185,northwest,11.7,No
2016/01/19,06:10,0.450,0.263,0.471,0.428,0.415,0.214,0.185,northwest,10.7,No
2016/01/19,06:20,0.451,0.265,0.471,0.430,0.415,0.214,0.185,west-northwest,8.1,No
2016/01/19,06:30,0.450,0.264,0.472,0.429,0.413,0.214,0.185,west-northwest,7.3,No
2016/01/19,06:40,0.453,0.264,0.472,0.428,0.415,0.214,0.186,northwest,2.7,No
2016/01/19,06:50,0.451,0.263,0.471,0.429,0.415,0.213,0.186,northwest,7.7,No
2016/01/19,07:00,0.450,0.263,0.472,0.430,0.413,0.213,0.185,north-northwest,6.3,No
2016/01/19,07:10,0.451,0.265,0.472,0.427,0.414,0.215,0.185,northwest,3.5,No
2016/01/19,07:20,0.452,0.264,0.473,0.428,0.415,0.214,0.187,northwest,3.7,No
2016/01/19,07:30,0.451,0.263,0.471,0.429,0.415,0.216,0.186,-,CALM,No
2016/01/19,07:40,0.450,0.264,0.472,0.428,0.412,0.214,0.185,north-northeast,4.1,No
2016/01/19,07:50,0.451,0.264,0.474,0.427,0.414,0.215,0.186,north,4.0,No
2016/01/19,08:00,0.450,0.265,0.472,0.430,0.414,0.215,0.185,north-northwest,3.0,No
2016/01/19,08:10,0.451,0.264,0.471,0.430,0.414,0.215,0.186,north-northwest,3.6,No
2016/01/19,08:20,0.451,0.264,0.472,0.428,0.413,0.216,0.187,northwest,4.9,No
2016/01/19,08:30,0.452,0.264,0.473,0.427,0.413,0.215,0.185,west-northwest,6.0,No
2016/01/19,08:40,0.451,0.263,0.471,0.431,0.414,0.215,0.186,west-northwest,5.9,No
2016/01/19,08:50,0.450,0.264,0.472,0.430,0.414,0.216,0.186,west,9.5,No
2016/01/19,09:00,0.452,0.263,0.474,0.428,0.414,0.215,0.185,west,11.1,No
2016/01/19,09:10,0.451,0.265,0.473,0.430,0.415,0.215,0.185,west,13.1,No
2016/01/19,09:20,0.451,0.263,0.473,0.431,0.414,0.215,0.184,west,11.7,No
2016/01/19,09:30,0.452,0.264,0.473,0.427,0.413,0.216,0.186,west,12.3,No
2016/01/19,09:40,0.452,0.265,0.474,0.432,0.414,0.217,0.185,west,10.1,No
2016/01/19,09:50,0.451,0.264,0.473,0.428,0.416,0.217,0.185,west,12.9,No
2016/01/19,10:00,0.451,0.263,0.474,0.430,0.414,0.215,0.187,west,10.6,No
2016/01/19,10:10,0.455,0.265,0.473,0.429,0.414,0.216,0.186,west,15.1,No
2016/01/19,10:20,0.451,0.263,0.474,0.430,0.414,0.216,0.186,west,17.0,No
2016/01/19,10:30,0.451,0.263,0.473,0.432,0.413,0.216,0.188,west,12.5,No
2016/01/19,10:40,0.452,0.263,0.474,0.431,0.413,0.216,0.186,west-northwest,18.3,No
2016/01/19,10:50,0.450,0.265,0.473,0.431,0.415,0.216,0.187,west,16.2,No
2016/01/19,11:00,0.454,0.264,0.473,0.432,0.413,0.216,0.187,west-northwest,12.9,No
2016/01/19,11:10,0.452,0.265,0.474,0.431,0.416,0.216,0.187,west,9.8,No
2016/01/19,11:20,0.451,0.266,0.474,0.431,0.413,0.217,0.188,west,6.1,No
2016/01/19,11:30,0.455,0.264,0.472,0.433,0.414,0.217,0.187,west-northwest,7.7,No
2016/01/19,11:40,0.451,0.267,0.474,0.430,0.417,0.216,0.188,west-northwest,1.2,No
2016/01/19,11:50,0.454,0.266,0.472,0.433,0.413,0.217,0.187,west-northwest,5.2,No
2016/01/19,12:00,0.452,0.265,0.473,0.430,0.416,0.216,0.187,west-northwest,2.9,No
2016/01/19,12:10,0.452,0.267,0.473,0.429,0.415,0.216,0.188,southwest,5.7,No
2016/01/19,12:20,0.451,0.264,0.471,0.433,0.417,0.216,0.187,west-southwest,6.1,No
2016/01/19,12:30,0.451,0.266,0.475,0.431,0.417,0.216,0.189,southwest,8.4,No
2016/01/19,12:40,0.453,0.265,0.472,0.433,0.414,0.217,0.189,southwest,6.8,No
2016/01/19,12:50,0.452,0.264,0.473,0.430,0.416,0.216,0.188,west,6.5,No
2016/01/19,13:00,0.455,0.266,0.475,0.434,0.414,0.217,0.187,west-southwest,6.2,No
2016/01/19,13:10,0.452,0.264,0.473,0.431,0.417,0.216,0.189,west-southwest,9.2,No
2016/01/19,13:20,0.453,0.266,0.475,0.434,0.419,0.216,0.187,west,10.6,No
2016/01/19,13:30,0.456,0.265,0.472,0.433,0.416,0.217,0.189,west,8.2,No
2016/01/19,13:40,0.452,0.263,0.477,0.430,0.417,0.217,0.188,west,8.8,No
2016/01/19,13:50,0.456,0.266,0.473,0.434,0.417,0.218,0.187,west,8.9,No
2016/01/19,14:00,0.453,0.264,0.476,0.430,0.415,0.218,0.188,west,12.3,No
2016/01/19,14:10,0.453,0.265,0.475,0.435,0.415,0.218,0.188,west-southwest,10.7,No
2016/01/19,14:20,0.455,0.266,0.475,0.435,0.415,0.216,0.188,west,12.8,No
2016/01/19,14:30,0.456,0.265,0.477,0.434,0.417,0.216,0.188,west,9.8,No
2016/01/19,14:40,0.455,0.266,0.477,0.436,0.415,0.216,0.189,west,11.2,No
2016/01/19,14:50,0.457,0.267,0.474,0.434,0.417,0.217,0.189,west,10.3,No
2016/01/19,15:00,0.455,0.265,0.476,0.433,0.416,0.217,0.189,west,10.9,No
2016/01/19,15:10,0.454,0.266,0.477,0.435,0.415,0.216,0.189,west,5.8,No
2016/01/19,15:20,0.453,0.267,0.475,0.434,0.417,0.217,0.189,west,10.0,No
2016/01/19,15:30,0.455,0.266,0.475,0.433,0.416,0.216,0.190,west,6.6,No
2016/01/19,15:40,0.455,0.266,0.479,0.435,0.415,0.217,0.189,west,5.6,No
2016/01/19,15:50,0.454,0.268,0.474,0.434,0.417,0.217,0.189,west-northwest,4.8,No
2016/01/19,16:00,0.455,0.267,0.477,0.433,0.416,0.217,0.190,west,6.1,No
2016/01/19,16:10,0.455,0.267,0.477,0.434,0.416,0.217,0.189,west,5.3,No
2016/01/19,16:20,0.454,0.266,0.477,0.434,0.416,0.216,0.190,west,8.7,No
2016/01/19,16:30,0.454,0.267,0.475,0.435,0.415,0.216,0.190,west-northwest,11.5,No
2016/01/19,16:40,0.454,0.267,0.478,0.434,0.417,0.218,0.189,west,11.2,No
2016/01/19,16:50,0.452,0.266,0.478,0.435,0.415,0.218,0.190,west,9.8,No
2016/01/19,17:00,0.455,0.266,0.477,0.432,0.415,0.218,0.190,west-northwest,10.9,No
2016/01/19,17:10,0.456,0.266,0.475,0.433,0.418,0.218,0.189,west-northwest,10.0,No
2016/01/19,17:20,0.454,0.266,0.477,0.434,0.416,0.217,0.188,west-northwest,10.6,No
2016/01/19,17:30,0.455,0.266,0.476,0.436,0.416,0.219,0.189,west-northwest,7.9,No
2016/01/19,17:40,0.454,0.266,0.475,0.434,0.416,0.217,0.189,west,8.2,No
2016/01/19,17:50,0.454,0.266,0.478,0.434,0.417,0.219,0.189,northwest,6.1,No
2016/01/19,18:00,0.455,0.266,0.477,0.434,0.417,0.218,0.191,northwest,7.0,No
2016/01/19,18:10,0.452,0.267,0.478,0.435,0.416,0.219,0.189,west-northwest,7.4,No
2016/01/19,18:20,0.454,0.267,0.474,0.433,0.415,0.217,0.189,west-northwest,6.4,No
2016/01/19,18:30,0.452,0.265,0.478,0.434,0.417,0.218,0.189,west-northwest,6.1,No
2016/01/19,18:40,0.453,0.267,0.478,0.434,0.417,0.218,0.189,west-northwest,7.0,No
2016/01/19,18:50,0.455,0.268,0.476,0.435,0.416,0.217,0.188,west,5.5,No
2016/01/19,19:00,0.453,0.267,0.475,0.435,0.416,0.217,0.189,west-southwest,4.3,No
2016/01/19,19:10,0.455,0.266,0.478,0.433,0.416,0.218,0.189,west-southwest,3.7,No
2016/01/19,19:20,0.453,0.267,0.479,0.433,0.417,0.217,0.190,south-southwest,1.3,No
2016/01/19,19:30,0.454,0.267,0.476,0.435,0.417,0.218,0.189,north,1.8,No
2016/01/19,19:40,0.455,0.268,0.477,0.435,0.416,0.217,0.189,west,3.7,No
2016/01/19,19:50,0.454,0.267,0.479,0.434,0.415,0.219,0.189,west-northwest,4.1,No
2016/01/19,20:00,0.454,0.266,0.478,0.435,0.416,0.218,0.190,west-northwest,3.9,No
2016/01/19,20:10,0.453,0.267,0.477,0.435,0.418,0.218,0.190,northwest,2.4,No
2016/01/19,20:20,0.455,0.266,0.476,0.435,0.416,0.218,0.189,west-northwest,2.9,No
2016/01/19,20:30,0.454,0.267,0.477,0.435,0.417,0.218,0.190,west,3.5,No
2016/01/19,20:40,0.454,0.267,0.479,0.433,0.416,0.218,0.191,west-southwest,3.4,No
2016/01/19,20:50,0.454,0.267,0.477,0.435,0.415,0.218,0.190,west,5.6,No
2016/01/19,21:00,0.453,0.267,0.475,0.437,0.417,0.218,0.190,west-northwest,7.0,No
2016/01/19,21:10,0.454,0.266,0.478,0.435,0.417,0.217,0.190,west-northwest,4.1,No
2016/01/19,21:20,0.454,0.266,0.479,0.435,0.415,0.218,0.190,west,5.7,No
2016/01/19,21:30,0.454,0.265,0.478,0.434,0.416,0.218,0.189,west-northwest,5.9,No
2016/01/19,21:40,0.454,0.266,0.476,0.436,0.416,0.218,0.189,west-northwest,6.1,No
2016/01/19,21:50,0.454,0.266,0.476,0.434,0.417,0.218,0.189,west-northwest,7.5,No
2016/01/19,22:00,0.455,0.267,0.477,0.433,0.416,0.217,0.189,west-northwest,8.4,No
2016/01/19,22:10,0.453,0.267,0.476,0.435,0.414,0.218,0.190,west-northwest,9.2,No
2016/01/19,22:20,0.454,0.266,0.477,0.434,0.415,0.218,0.189,northwest,7.0,No
2016/01/19,22:30,0.456,0.268,0.477,0.434,0.415,0.218,0.190,west-northwest,6.1,No
2016/01/19,22:40,0.454,0.266,0.478,0.435,0.417,0.218,0.189,west-northwest,7.4,No
2016/01/19,22:50,0.456,0.266,0.479,0.434,0.416,0.218,0.189,west-northwest,9.3,No
2016/01/19,23:00,0.453,0.266,0.477,0.436,0.416,0.218,0.189,west-northwest,7.4,No
2016/01/19,23:10,0.454,0.266,0.476,0.436,0.415,0.219,0.190,west,8.5,No
2016/01/19,23:20,0.455,0.267,0.478,0.434,0.417,0.217,0.189,west,8.7,No
2016/01/19,23:30,0.455,0.266,0.479,0.433,0.417,0.219,0.189,west,8.8,No
2016/01/19,23:40,0.455,0.267,0.477,0.434,0.417,0.217,0.189,west,8.1,No
2016/01/19,23:50,0.455,0.266,0.477,0.435,0.415,0.219,0.191,west-northwest,9.3,No
